Other Surface Observations
Issued by NWS Tucson, AZ

Home | Current Version | Previous Version | Text Only | Print | Product List | Glossary On
Versions: 1 2 3 4 5 6 7 8 9 10 11 12 13 14 15 16 17 18 19 20 21 22 23 24 25 26 27 28 29 30 31 32 33 34 35 36 37 38 39 40 41 42 43 44 45 46 47 48 49 50
000
SXUS55 KTWC 200315
OSOTWC

WEATHER ROUNDUP FOR SOUTHEAST ARIZONA
NATIONAL WEATHER SERVICE TUCSON AZ
815 PM MST SAT APR 19 2014

AZZ504>506-514-200415-
LOCATION       SKY/WX    TMP DP  RH WIND       PRES   REMARKS
TUCSON         MOCLDY    71  41  33 W10       30.03R
DAVIS-MONTHAN  MOCLDY    71  39  31 SW10      30.02R
CHILDRENS PARK N/A       71 N/A N/A W9                PIMA CO DEQ
ALVERNON/22ND  N/A       72 N/A N/A W10               PIMA CO DEQ
CHERRY/GLENN   N/A      N/A N/A N/A N/A               PIMA CO DEQ
TANGERINE      N/A       71 N/A N/A W9                PIMA CO DEQ
CONTL RANCH    N/A       74  41  31 SW13              PIMA CO DEQ
GRANT/1ST      N/A       72  40  31 W9                PIMA CO DEQ
CRAYCROFT/22ND N/A       72  39  30 W14               PIMA CO DEQ
GOLFLINKS/KOLB N/A      N/A N/A N/A N/A               PIMA CO DEQ
AJO/12TH       N/A       72  40  31 SW11              PIMA CO DEQ
SAGUARO EAST   N/A       72  41  33 W9                PIMA CO DEQ
FAIRGROUNDS    N/A       67 N/A N/A SW19              PIMA CO DEQ
SAGUARO        N/A       75  35  23 W7G16             *SABINO CYN
SAN CARLOS     N/A       70  40  33 N3                *SAN CARLOS
GREEN VALLEY   N/A       65  47  52 SW14              PIMA CO DEQ
HORSE CAMP CYN N/A       65  38  37 NE7G12            *ARAVAIPA CYN
RINCON MTNS    N/A       46  30  53 W3G10             *NR MANNING CAMP
$$

AZZ509>511-200415-
LOCATION       SKY/WX    TMP DP  RH WIND       PRES   REMARKS
SAFFORD        CLOUDY    64  44  48 SE7       30.04R
STRAY HORSE    N/A       41  35  78 NE3               *
TRAIL CABIN    N/A       48  35  61 CALM              *N OF GRANVILLE
BLACK HILLS    N/A       63  40  42 SE4               *N OF FT THOMAS
DRY LAKE       N/A       44  34  69 NW3               *NATANES MTNS
NOON CREEK     N/A       54  45  72 SW5               *PINALENO MTNS
COLUMBINE      N/A       37  34  87 CALM              *PINALENO MTNS
GUTHRIE        N/A       51  36  57 W4G11             *SW OF GUTHRIE
$$

AZZ502-503-513-200415-
LOCATION       SKY/WX    TMP DP  RH WIND       PRES   REMARKS
NOGALES        CLOUDY    64  39  39 NW8       30.09R
SELLS          N/A       67  47  49 S8G17             *
SASABE         N/A       64  42  45 S4G21             *ALTAR VLY
HOPKINS        N/A       50  41  71 E4G16             *SANTA RITA MTNS
CARR CYN       N/A       56  39  53 E3                *W OF HEREFORD
$$

AZZ507-508-512-200415-
LOCATION       SKY/WX    TMP DP  RH WIND       PRES   REMARKS
SIERRA VISTA   CLOUDY    59  40  49 MISG      30.10R
DOUGLAS        MOCLDY    53  46  77 NW5       30.10R
EMPIRE MTNS    N/A       56  46  69 SW11G15           *LAS CIENEGAS NCA
MULESHOE RANCH N/A       59  44  58 SE4G20            *PRESERVE
HEADQUARTERS   N/A       50  46  86 CALM              *CHIRICAHUA MTNS
$$

.............................NOTES.............................
THIS IS AN AUTOMATED COLLECTIVE WITH MINIMAL QUALITY CONTROL.
PIMA CO DEQ SITES HAVE NONSTANDARD WIND SENSOR HEIGHTS.
PIMA CO DEQ SITES DO NOT REPORT WIND GUSTS.
* INDICATES WIND SENSORS LOCATED AT 20 FEET INSTEAD OF 33 FEET.
..............................KEY..............................
SKY/WX - SKY CONDITION/WEATHER
TMP    - TEMPERATURE IN FAHRENHEIT
DP     - DEWPOINT IN FAHRENHEIT
RH     - RELATIVE HUMIDITY IN PERCENT
WIND   - DIRECTION AND SPEED IN MILES PER HOUR (MPH)
VRB    - VARIABLE WIND DIRECTION
PRES   - MEAN SEA LEVEL PRESSURE IN INCHES OF MERCURY
         F - FALLING PRESSURE   R - RISING PRESSURE
         S - STEADY PRESSURE
VSB    - VISIBILITY IN MILES
HX     - HEAT INDEX IN FAHRENHEIT
WCI    - WIND CHILL INDEX IN FAHRENHEIT
N/A    - NOT AVAILABLE
AFB    - AIR FORCE BASE
         DAVIS-MONTHAN IS DAVIS-MONTHAN AIR FORCE BASE
CYN    - CANYON
MTNS   - MOUNTAINS
NCA    - NATIONAL CONSERVATION AREA
NR     - NEAR
VLY    - VALLEY
CONTL  - CONTINENTAL
PIMA CO DEQ - PIMA COUNTY DEPT OF ENVIRONMENTAL QUALITY



USA.gov is the U.S. government's official web portal to all federal, state and local government web resources and services.